Volver al catálogo

SL-16 DEB

ActivoLEO
NORAD 22354·DEBRIS·🇷🇺 Russia

Lanzado Dec 25, 1992 desde Baikonur Cosmodrome

Loading…

Próximos Pases (próximas 24 horas)

TLE

ActualizadoSource: Space-Track

Época: Sep 14, 2026, 01:44 UTC

1 22354U 92093AT  26257.07259030  .00000034  00000-0  54557-4 0  9994
2 22354  71.1479  10.7172 0140990  62.3463 109.2367 13.93025223710648

Sigue SL-16 DEB en tiempo real con AllMySat

Download on the App Store